User: anonymous   Login
Location: Middelsbur
(53.6609°N, 7.5020°E)
Time: 21:06:57
(UTC+00:00)
Language:

Cosmos 2322 Rocket - Orbit

View from above orbital plane
View from above orbital plane
View from above satellite
View from above satellite

Ground track
Ground track

The orbit data is extracted from the following two-line orbital elements,

1 23705U 95058B   20263.52869968 +.00000246 +00000-0 +15086-3 0  9995
2 23705 071.0223 051.5679 0014557 281.6032 078.3456 14.15137805285284
Epoch (UTC): 19 September 2020 12:41:19
Eccentricity: 0.0014557
inclination: 71.0223°
perigee height: 831 km
apogee height: 852 km
right ascension of ascending node: 51.5679°
argument of perigee: 281.6032°
revolutions per day: 14.15137805
mean anomaly at epoch: 78.3456°
orbit number at epoch: 28528

The dashed part of the orbit path shows where the satellite is in the earth's shadow,  

DLR